{"data":{"norad_id":45444,"epoch":"2026-05-25T02:41:17.142144Z","epoch_age_seconds":79569,"freshness":"FRESH","line1":"1 45444U 20020W   26145.11200396  .00000471  00000+0  12919-2 0  9990","line2":"2 45444  87.8918  25.6493 0002168  78.1559 281.9812 13.11418477299654","mean_motion":13.11418477,"eccentricity":0.0002168,"inclination_deg":87.8918,"raan_deg":25.6493,"arg_perigee_deg":78.1559,"mean_anomaly_deg":281.9812,"bstar":0.0012919,"rev_number":29965,"period_min":109.8047667663,"perigee_km":1216.0300103165,"apogee_km":1219.3235551727,"semimajor_km":7595.8137827446,"source":"CELESTRAK","updated_at":"2026-05-25T13:38:22.345080Z"}}